This is the latest recevied weather packets stored in our database for station/object SP5EB-3. If no packets are shown the sender has not sent any weather packets the latest 10 day(s).
| Time | Temp. | Humidity | Pressure | Rain* | Wind** | Luminosity | Snow |
|---|---|---|---|---|---|---|---|
| 1778178433 | 12.78° C | 99% | 1011.7 hPa | - | - | - | - |
| 1778178126 | 12.78° C | 99% | 1011.7 hPa | - | - | - | - |
| 1778177818 | 12.78° C | 92% | 1011.7 hPa | - | - | - | - |
| 1778177510 | 12.78° C | 84% | 1011.6 hPa | - | - | - | - |
| 1778177203 | 12.78° C | 56% | 1011.6 hPa | - | - | - | - |
| 1778176895 | 13.33° C | 28% | 1011.4 hPa | - | - | - | - |
| 1778176588 | 13.33° C | 15% | 1011.5 hPa | - | - | - | - |
| 1778176281 | 13.33° C | 19% | 1011.5 hPa | - | - | - | - |
| 1778175665 | 13.33° C | 7% | 1011.4 hPa | - | - | - | - |
| 1778175358 | 13.33° C | 1% | 1011.3 hPa | - | - | - | - |
| 1778174743 | 13.89° C | 1% | 1011 hPa | - | - | - | - |
| 1778174436 | 13.89° C | 1% | 1010.9 hPa | - | - | - | - |
| 1778174128 | 13.89° C | 1% | 1010.9 hPa | - | - | - | - |
| 1778173820 | 13.89° C | 1% | 1010.7 hPa | - | - | - | - |
| 1778173512 | 14.44° C | 1% | 1010.6 hPa | - | - | - | - |
| 1778173205 | 14.44° C | 1% | 1010.5 hPa | - | - | - | - |
| 1778172898 | 14.44° C | 1% | 1010.5 hPa | - | - | - | - |
| 1778172590 | 15° C | 1% | 1010.6 hPa | - | - | - | - |
| 1778172283 | 15° C | 1% | 1010.5 hPa | - | - | - | - |
| 1778171974 | 15° C | 1% | 1010.5 hPa | - | - | - | - |
| 1778171666 | 15° C | 1% | 1010.4 hPa | - | - | - | - |
| 1778171359 | 15° C | 1% | 1010.4 hPa | - | - | - | - |
| 1778171051 | 15° C | 1% | 1010.4 hPa | - | - | - | - |
| 1778170744 | 15° C | 1% | 1010.4 hPa | - | - | - | - |
| 1778170436 | 15° C | 1% | 1010.6 hPa | - | - | - | - |
* Rain since midnight (hover to see other rain measurements)
** Current wind speed in m/s (hover to see current wind gust speed)